Regional Weather Roundup
Issued by NWS

Home | Current Version | Previous Version | Text Only | Print | Product List | Glossary On
Versions: 1 2 3 4 5 6 7 8 9 10 11 12 13 14 15 16 17 18 19 20 21 22 23 24 25 26 27 28 29 30 31 32 33 34 35 36 37 38 39 40 41 42 43 44 45 46 47 48 49 50
000
ASUS45 KABQ 232210
RWRNM
NEW MEXICO REGIONAL WEATHER ROUNDUP
NATIONAL WEATHER SERVICE ALBUQUERQUE NM
400 PM MDT SUN APR 23 2017

NOTE: "FAIR" MEANS FEW OR NO CLOUDS BELOW 12,000 FEET AGL WITH NO
       SIGNIFICANT WEATHER OR OBSTRUCTIONS TO VISION.

      THIS PRODUCT IS RELEASED AS TWO VERSIONS.  ONE VERSION NEAR
      THE TOP OF THE HOUR CONTAINING PRELIMINARY DATA FROM ALBUQUERQUE
      AND OTHER STATIONS.  A FINAL VERSION WITH ADDITIONAL DATA IS
      ISSUED ABOUT 10 MINUTES AFTER THE HOUR.

NMZ501-503-504-510>518-232300-
NORTHWEST PLATEAU/NORTHCENTRAL MOUNTAINS

CITY           SKY/WX    TMP DP  RH WIND       PRES   REMARKS
FARMINGTON     FAIR      77   8   7 SW14G20   29.87F
LOS ALAMOS     FAIR      67  28  23 S14G24    30.05F
SANTA FE       FAIR      71  30  21 W14       30.02F
TAOS             N/A     66  28  24 W14G24    30.04F
ANGEL FIRE     FAIR      61  28  28 W18G29    30.09F

$$
NMZ402-403-502-505>509-232300-
WESTCENTRAL MOUNTAINS/SOUTHWEST MOUNTAINS

CITY           SKY/WX    TMP DP  RH WIND       PRES   REMARKS
GALLUP         FAIR      75  17  11 SW22G31   29.97F
GRANTS         FAIR      79  19  10 S7G18     29.98F
SILVER CITY    FAIR      73  33  23 S7        30.06F

$$
NMZ407-409-411-412-232300-
SOUTHERN DESERTS

CITY           SKY/WX    TMP DP  RH WIND       PRES   REMARKS
DEMING         FAIR      79  34  19 E8        29.99F
LAS CRUCES     FAIR      79  31  17 S9        30.02F
HOLLOMAN AFB   FAIR      77  31  18 S12G23    30.03F
ALAMOGORDO     FAIR      75  34  22 S17G24    30.01F
T OR C         FAIR      77  32  19 S21G28    29.98F

$$
NMZ519>523-232300-
CENTRAL VALLEYS/CENTRAL HIGHLANDS

CITY           SKY/WX    TMP DP  RH WIND       PRES   REMARKS
ALBUQUERQUE    FAIR      75  30  19 S14G26    29.97F
DOUBLE EAGLE   MOSUNNY   72  36  26 SE17      30.00F
MORIARTY ARPT  FAIR      77  30  18 S16G26    30.03F
CLINES CORNERS FAIR      71  29  21 SW18G29   30.07F
BELEN          FAIR      76  30  18 S28       29.95F
SOCORRO        FAIR      76  31  19 S22G32    29.98F

$$
NMZ524>526-539-540-232300-
SOUTHCENTRAL MOUNTAINS

CITY           SKY/WX    TMP DP  RH WIND       PRES   REMARKS
RUIDOSO        FAIR      72  27  18 SW25G31   30.10F

$$
NMZ527>531-232300-
NORTHEAST HIGHLANDS/NORTHEAST PLAINS

CITY           SKY/WX    TMP DP  RH WIND       PRES   REMARKS
LAS VEGAS      FAIR      72  22  15 SW29G38   30.01F
RATON          FAIR      75  33  21 S26G37    29.90F
CLAYTON        FAIR      72  34  24 S29G36    29.93F

$$
NMZ532>537-232300-
EASTCENTRAL PLAINS

CITY           SKY/WX    TMP DP  RH WIND       PRES   REMARKS
SANTA ROSA     FAIR      74  34  22 S23G35    29.95F
TUCUMCARI      FAIR      77  35  21 SW20G31   29.94F
CANNON AFB     FAIR      73  35  24 S20G26    30.01F
CLOVIS AIRPORT FAIR      73  37  27 S20G29    30.02F

$$
NMZ028-029-538-232300-
SOUTHEAST PLAINS

CITY           SKY/WX    TMP DP  RH WIND       PRES   REMARKS
ROSWELL        FAIR      75  34  22 S21G30    30.01F
ARTESIA        FAIR      73  36  25 S25       30.00F
CARLSBAD       FAIR      75  33  21 S15G29    30.00F
HOBBS          SUNNY     68  32  26 S13G21    30.07F


$$



USA.gov is the U.S. government's official web portal to all federal, state and local government web resources and services.